Regional Weather Roundup
Issued by NWS Newport/Morehead, NC

Current Version | Previous Version | Text Only | Print | Product List | Glossary On
Versions: 1 2 3 4 5 6 7 8 9 10 11 12 13 14 15 16 17 18 19 20 21 22 23 24 25 26 27 28 29 30 31 32 33 34 35 36 37 38 39 40 41 42 43 44 45 46 47 48 49 50
000
ASUS42 KMHX 231524
RWRMHX
WEATHER ROUNDUP FOR EASTERN NORTH CAROLINA
NATIONAL WEATHER SERVICE NEWPORT/MOREHEAD CITY NC
1100 AM EDT SAT MAY 23 2015

NOTE: "FAIR" INDICATES FEW OR NO CLOUDS BELOW 12,000 FEET
WITH NO SIGNIFICANT WEATHER AND/OR OBSTRUCTIONS TO VISIBILITY

NCZ015>017-031-032-045>047-102-103-231600-
NORTH COAST

CITY           SKY/WX    TMP DP  RH WIND       PRES   REMARKS
EDENTON        MOSUNNY   72  47  41 E8        30.43S
ELIZABETH CITY MOSUNNY   70  42  36 NE14      30.44R
KITTY HAWK     MOSUNNY   66  47  50 NE12G21   30.43R
MANTEO         MOSUNNY   67  47  48 NE14G21   30.44R

$$

NCZ045>047-081-094-103-104-231600-
CENTRAL COAST

CITY           SKY/WX    TMP DP  RH WIND       PRES   REMARKS
FRISCO         SUNNY     71  55  56 N10G18    30.42R
SWANQUARTER      N/A     73 N/A N/A NE7       30.39S

$$

NCZ095-097-098-100-101-231600-
SOUTHERN COAST

CITY           SKY/WX    TMP DP  RH WIND       PRES   REMARKS
BEAUFORT       SUNNY     76  51  41 N10       30.40S
CEDAR ISLAND     N/A     73 N/A N/A NW9       30.44S
JACKSONVILLE   SUNNY     75  51  43 N8        30.40S
PINEY ISLAND   SUNNY    N/A N/A N/A NW6       30.41R
WILMINGTON     SUNNY     75  50  41 N8        30.40S


$$

NCZ011>013-027>030-043-044-078>080-089-090>093-098-231600-
COASTAL PLAIN

CITY           SKY/WX    TMP DP  RH WIND       PRES   REMARKS
AHOSKIE        SUNNY     69  44  41 N9        30.45S
CLINTON        SUNNY     76  52  43 NE9       30.43R
ELIZABETHTOWN  SUNNY     74  50  42 CALM      30.42R
GOLDSBORO      SUNNY    N/A N/A N/A MISG        N/A
GREENVILLE     SUNNY     70  50  49 NE10G16   30.43S
HAVELOCK       SUNNY     75  53  46 N8        30.42S
KENANSVILLE    SUNNY     74  49  42 CALM      30.43S
KINSTON        SUNNY     72  52  49 NE9       30.43S
NEW BERN       SUNNY     74  47  38 N6        30.42S
RICHLANDS      SUNNY     75  48  38 NW3       30.41S
ROCKY MOUNT    SUNNY     72  44  36 N13       30.44S
WASHINGTON     MOSUNNY   72  53  50 NE8G16    30.43R
WHITEVILLE     SUNNY     74  49  41 NE8       30.41R

$$

AMZ130-135-150-152-154-156-158-170-250-252-270-ANZ085-086-088-633-658-670-231600-
MARINE OBSERVATIONS

STATION/POSITION TIME  TEMP    WIND        PRES    WAVE   SWELL
                       AIR SEA DIR/SP/G            HT/PER HT/PER
                 (UTC) (F)     (DEG/KT/KT) (MB)    (FT/S) (FT/S)
CHESAPEAKE LIGHT 1500   60      30/ 15/ 16 1031.6
64 E VA BEACH    1450   61 60   20/ 12/ 14 1030.0    2/ 3   2/ 8
DUCK             1500   62 64   30/ 16/ 19 1029.9
2 E DUCK         1411      64                N/A     2/ 9
OREGON INLET     1500   65 69   20/ 16/ 18 1030.3
13E OREGON INLT  1500      62                N/A     2/ 9
HATTERAS CG      1500   69 71   10/ 12/ 15 1029.5
DIAMOND BUOY     1450   68 77   20/ 17/ 19 1029.4    3/ 9   3/ 9
CAPE LOOKOUT     1500   72      50/  7/  8 1029.4
BEAUFORT LAB     1500   73 73   10/  9/ 11 1028.8
27 SE WRIGHTSVLE 1500   69 77   70/ 10/ 12   N/A
5 SE WRIGHTSVLE  1408   72 76   70/ 10/ 14 1029.5
225 S CAPE HAT   1450   71 74   50/ 17/ 19 1027.5    5/ 8   2/ 8
41 SE CHARLESTON 1450   73 75   50/ 17/ 21 1027.2    4/ 5   2/10

$$



USA.gov is the U.S. government's official web portal to all federal, state and local government web resources and services.